Location: Boquerón
(10.0687°N, 67.9212°W)
Time: 09:43:42
(UTC+00:00)

Landsat 7 - Pass Details

Date: 29 May 2024
Orbit: 690 x 692 km, 97.9° (Epoch: 16 June)

Event Time Altitude Azimuth Distance (km) Brightness Sun altitude
Exits shadow 23:38:35 - 166° (SSE) 2,756 6.5 -12.0°
Reaches altitude 10° 23:40:06 10° 165° (SSE) 2,139 5.9 -12.3°
Maximum altitude 23:44:47 80° 79° (E) 703 3.7 -13.3°
Drops below altitude 10° 23:49:28 10° 351° (N) 2,137 6.8 -14.4°
Sets 23:51:42 0° 351° (N) 3,052 7.6 -14.9°
